Theta_e
321 320 319 319 319 320 321 322 322 322 321 323 325 327 328 326 328 340 349 352 353 348 346 349 347 347 347 347 350 349 348 350 349 349 349 350 351 350 350 349 347 347 347 347 348 349 349 350 351 352 352 353 353 352 351 350 350 350 349 346 345 346 344 342 342 343 345 346 346 346 345 343 342 340 339 343 346 347 347 344 339 336 338 341 340 341
319 319 319 321 321 320 321 320 320 320 320 322 323 324 326 325 329 345 353 352 354 347 341 348 349 347 349 348 350 350 348 349 349 350 351 351 350 350 350 348 347 347 348 349 350 349 350 350 351 352 353 353 353 352 350 350 351 350 348 346 346 345 342 342 342 344 346 347 346 346 344 343 342 341 341 343 346 347 344 339 338 336 336 338 337 338
319 319 321 322 322 320 320 320 320 320 320 320 321 322 322 325 332 345 353 354 353 346 337 343 346 343 349 349 349 350 348 349 349 349 349 349 348 348 347 347 346 347 349 350 349 349 350 350 351 352 353 353 353 352 351 350 351 350 347 345 346 345 342 343 343 344 347 347 346 344 343 343 344 343 343 344 345 345 343 339 338 338 336 337 338 339
318 320 323 322 321 321 320 320 319 318 319 319 320 319 320 325 328 331 345 355 353 347 341 345 344 343 349 350 350 350 348 350 349 348 348 347 348 346 345 346 346 347 349 349 348 349 350 351 352 352 353 353 353 352 351 351 351 350 347 344 345 345 343 343 343 345 347 346 344 343 344 347 347 343 342 343 341 342 343 341 340 339 338 338 341 344
320 322 323 321 321 321 320 320 320 318 318 319 320 319 320 326 327 326 338 350 350 349 350 347 337 339 348 348 348 349 347 349 348 347 347 347 346 345 346 347 347 348 349 348 347 348 349 350 352 352 353 353 353 352 351 351 351 350 347 344 344 344 343 343 342 343 345 344 342 342 344 347 345 340 340 341 340 342 343 342 342 342 340 340 344 346
322 322 322 321 321 321 321 320 320 319 318 317 320 322 322 324 327 330 336 339 334 336 348 345 328 331 346 347 345 347 348 347 346 347 346 345 344 345 346 347 347 348 348 348 348 348 350 351 352 353 353 353 353 352 351 351 351 349 346 343 343 344 345 344 343 343 342 342 341 340 341 342 342 340 341 343 344 344 343 344 345 344 342 341 344 345
322 322 321 321 321 321 321 321 322 321 318 317 322 324 326 326 326 330 335 332 324 328 346 348 329 328 339 346 346 346 348 347 346 347 346 343 343 345 346 346 348 348 347 348 349 348 349 350 353 353 352 352 352 352 351 350 351 349 344 341 341 343 345 344 344 344 343 343 342 341 341 342 343 343 343 344 345 344 344 345 346 346 345 341 344 348
322 322 321 321 322 322 322 322 323 322 319 322 330 331 329 330 329 332 334 331 328 333 344 349 338 329 331 342 347 346 348 349 347 348 347 345 344 344 345 346 348 349 348 348 349 349 349 350 353 352 350 351 351 351 351 350 352 349 341 337 338 341 344 344 344 344 343 343 342 342 344 345 344 344 343 344 345 346 345 347 347 347 346 340 344 350
323 323 321 323 323 323 323 322 323 323 324 331 337 335 331 332 333 334 333 332 333 331 330 339 342 330 328 341 349 347 347 348 347 348 348 349 347 345 346 346 348 349 348 348 349 350 349 350 351 350 349 351 351 351 351 351 352 349 339 335 336 338 342 344 343 342 342 343 342 341 345 345 344 344 343 343 346 346 345 347 346 347 348 343 341 346
323 323 322 322 322 323 323 322 324 326 329 336 338 335 335 334 335 336 334 332 331 327 324 331 337 327 326 337 345 346 346 347 347 346 347 350 349 347 346 346 348 349 348 347 348 349 348 348 349 349 350 350 351 352 351 351 352 350 341 335 335 336 338 341 341 341 341 341 341 341 344 344 343 345 344 343 344 344 343 344 343 343 346 346 343 343
323 322 323 323 323 326 324 324 329 330 331 337 336 334 334 334 336 335 334 332 326 324 324 329 335 329 325 331 339 343 345 346 346 346 347 349 349 348 347 347 349 348 348 347 348 348 349 349 349 350 350 350 351 352 351 351 352 351 344 336 335 335 336 338 338 339 339 337 338 339 340 340 340 342 343 342 341 340 339 339 342 342 343 346 347 346
324 323 324 323 323 327 328 327 333 336 336 336 332 329 327 328 332 329 329 330 323 322 326 331 339 334 325 330 339 343 345 345 345 348 349 347 346 347 348 348 348 348 348 347 346 347 349 350 350 350 350 350 352 352 352 351 351 352 347 338 335 336 336 336 335 335 335 335 336 337 336 336 336 337 338 338 338 339 338 338 343 345 343 345 348 348
323 324 324 323 322 326 328 326 329 333 334 331 327 324 320 320 323 321 322 323 321 324 330 337 340 333 328 334 342 345 346 346 347 349 349 347 346 346 347 347 347 349 349 348 348 347 347 351 351 350 351 351 353 353 352 351 351 352 349 342 335 336 337 337 335 335 333 334 334 334 333 333 333 334 335 335 336 338 339 341 345 345 343 344 346 347
319 323 323 322 322 324 326 324 323 325 327 326 323 321 318 317 318 318 318 318 320 324 331 343 340 327 326 338 345 346 347 347 349 351 351 350 348 346 346 346 347 349 348 347 348 347 347 350 351 351 351 352 353 353 352 352 351 351 350 344 338 336 336 337 338 337 335 333 332 332 332 333 331 331 333 335 339 341 342 345 347 345 344 344 344 345
316 319 323 323 323 323 325 323 321 322 324 325 325 323 319 318 318 318 317 317 319 321 328 339 335 322 324 338 345 346 347 348 350 352 352 352 350 348 347 347 348 348 347 348 348 348 348 349 350 351 351 352 353 353 352 352 352 352 351 345 339 338 336 337 339 339 338 335 333 332 331 332 333 332 333 338 342 344 344 345 345 345 346 345 345 346
316 318 324 325 325 325 324 325 324 323 322 324 326 322 319 319 320 318 317 319 319 317 323 328 326 324 331 341 345 346 347 349 350 352 352 351 351 350 347 345 347 348 348 347 347 349 349 349 350 351 351 352 353 352 353 353 352 353 351 345 340 339 337 337 337 338 340 338 336 336 332 333 336 337 339 342 343 344 345 345 345 345 345 345 346 347
316 318 325 326 326 327 326 326 326 322 320 322 321 319 320 323 322 318 316 319 319 316 320 321 320 323 331 338 344 345 346 348 349 351 352 350 350 350 347 343 342 345 348 348 347 348 349 349 350 351 351 351 352 352 353 353 352 351 350 347 342 341 339 339 337 337 339 339 339 339 336 336 340 342 345 345 342 343 345 345 346 345 345 346 347 346
319 318 324 326 325 326 327 327 327 326 324 322 319 319 322 323 322 320 317 318 318 316 318 318 318 318 321 329 341 345 344 346 346 349 351 351 351 350 348 344 340 341 344 348 350 349 349 348 349 350 351 351 352 352 352 353 353 351 350 349 346 344 343 342 341 339 339 340 341 342 340 340 343 345 347 346 345 345 346 346 346 346 347 347 347 346
322 318 321 326 325 325 327 326 325 326 327 325 322 324 323 319 318 319 317 317 317 316 317 318 319 319 318 325 335 340 343 345 346 349 350 351 354 352 350 347 344 341 340 342 345 346 348 347 347 349 350 350 351 352 352 352 353 352 351 352 350 348 347 346 346 344 342 341 343 345 344 344 346 347 348 348 348 348 347 347 347 347 348 347 347 346
324 318 319 324 325 324 325 324 321 322 326 326 325 326 324 321 319 319 319 318 317 316 317 318 319 319 323 330 336 340 346 346 346 348 350 352 354 353 352 351 349 347 343 341 339 340 342 344 346 348 349 350 350 351 352 352 353 353 353 352 352 351 350 349 349 348 346 345 346 348 347 346 346 347 348 349 349 349 349 349 348 348 348 348 348 347
325 321 317 322 326 323 322 324 323 323 325 324 322 322 323 324 322 322 321 318 318 317 317 319 318 318 328 340 343 346 348 347 348 350 351 354 352 350 352 352 351 351 349 346 344 342 341 342 345 347 348 350 350 351 352 352 352 353 353 353 352 352 352 351 351 350 349 348 348 348 348 347 346 346 348 349 349 349 349 350 349 348 348 348 348 348
324 322 319 319 321 320 322 328 328 327 327 325 323 322 323 323 321 320 320 319 320 319 317 320 318 320 335 348 348 350 349 349 353 353 352 353 351 350 352 352 352 352 351 350 349 348 346 344 344 346 348 349 351 352 351 352 352 352 353 353 352 352 352 351 351 351 351 350 349 348 348 348 347 347 348 349 349 349 349 349 349 349 349 349 349 349
327 324 320 319 320 323 326 329 328 328 329 327 326 326 326 325 321 318 318 319 321 320 320 321 318 324 343 352 350 352 352 352 355 354 353 352 350 350 351 351 352 352 351 352 351 350 350 348 344 345 348 350 351 352 352 351 352 352 352 352 353 353 353 352 351 351 352 351 349 348 348 348 348 348 348 348 349 348 348 348 349 349 349 349 349 350
328 325 321 319 323 325 327 328 328 328 328 326 326 328 327 326 325 323 322 323 322 319 320 320 318 327 345 351 351 353 352 352 353 353 353 351 348 349 350 351 351 351 352 352 352 351 351 349 345 343 348 351 352 352 353 352 351 351 352 352 352 353 353 353 352 352 351 350 349 349 348 348 348 348 348 349 348 348 348 348 348 349 349 349 350 351
325 324 321 318 319 321 322 325 325 325 326 325 327 329 329 328 329 327 326 327 322 319 321 321 317 327 343 348 349 349 349 350 351 351 352 351 348 348 349 350 351 350 351 351 351 351 351 350 346 343 345 351 354 353 354 354 353 352 352 353 353 353 353 352 352 353 352 350 349 349 347 347 347 347 348 348 347 347 347 347 348 349 350 350 349 351
324 325 323 318 316 317 318 319 320 322 324 325 327 329 329 329 330 328 325 324 322 322 325 322 319 327 341 346 345 346 346 347 348 349 349 350 349 347 348 349 349 349 349 349 350 351 351 350 349 347 346 349 353 354 354 354 353 352 353 354 353 352 352 353 352 352 352 351 351 350 347 346 346 346 347 347 347 347 347 347 348 349 351 350 349 351
327 326 325 322 319 318 319 322 323 323 323 323 326 328 329 329 331 329 325 323 323 324 324 325 325 327 332 337 339 340 342 343 344 345 347 349 349 347 348 348 348 349 348 348 349 349 350 351 350 350 348 347 349 352 354 354 354 354 353 353 354 353 351 352 352 351 348 349 352 351 348 346 346 346 346 347 347 347 347 347 347 348 350 350 350 351
326 324 325 326 324 323 325 326 326 326 324 324 325 327 328 331 331 329 326 326 328 325 322 329 334 330 329 332 334 335 339 340 342 345 347 349 349 347 346 347 348 348 347 348 348 347 349 350 350 351 350 349 347 348 350 352 353 354 353 353 354 353 351 350 351 351 348 347 350 351 349 347 347 347 346 347 347 347 347 347 347 348 349 350 350 350
325 323 325 325 324 325 326 326 327 327 326 326 326 326 328 331 331 329 327 329 331 327 324 331 335 333 332 333 333 336 339 340 344 348 348 348 349 347 346 346 347 347 347 347 347 346 347 347 348 350 351 351 350 349 348 349 351 353 353 353 353 353 352 351 350 350 349 347 348 349 349 348 348 348 348 347 347 347 347 348 348 348 348 349 349 349
326 324 327 326 323 325 326 327 328 328 326 327 326 326 328 329 331 330 329 330 331 329 329 332 333 334 334 334 334 338 341 343 347 348 347 348 348 346 345 345 346 347 347 347 347 347 347 347 348 348 349 350 351 351 351 350 350 351 351 353 354 354 354 353 352 351 350 349 349 348 349 349 349 348 348 347 344 342 343 346 348 348 348 349 349 349
325 326 331 328 322 323 326 328 328 327 326 326 326 326 327 328 328 329 330 331 330 330 331 333 332 334 336 337 339 342 344 346 348 347 347 347 346 345 344 345 346 347 346 347 347 348 348 348 348 348 349 349 349 351 352 351 352 351 351 353 353 353 354 354 353 354 352 350 350 349 349 349 349 349 348 348 346 342 339 341 346 348 348 348 349 349
325 328 332 328 320 320 324 326 326 326 326 324 324 326 327 327 327 328 329 331 330 330 331 331 330 334 339 341 341 343 345 345 346 347 347 345 344 345 343 344 346 346 346 346 347 347 347 348 348 348 348 348 349 350 350 351 352 352 352 352 351 351 352 352 352 353 354 352 351 350 350 349 349 349 349 349 349 347 344 340 342 346 348 348 349 349
326 326 327 324 319 320 324 325 323 324 322 321 323 326 326 326 327 327 328 331 331 331 330 328 329 335 340 339 338 340 342 344 346 347 345 344 344 344 344 345 346 346 346 346 346 346 346 347 347 347 347 347 348 349 349 350 351 351 351 351 351 351 351 351 351 351 353 354 352 351 351 350 349 349 349 349 349 349 349 346 341 341 343 345 346 346
327 325 325 324 320 319 324 325 323 321 319 321 326 328 327 327 327 326 327 329 331 332 331 330 331 335 338 338 337 340 342 345 347 345 344 344 344 344 345 345 346 345 346 346 346 346 345 346 346 346 345 346 347 349 349 350 350 351 350 351 351 351 351 351 350 351 353 354 353 352 352 352 350 350 349 350 349 349 350 349 345 340 338 339 341 342
327 326 325 325 321 320 322 323 320 319 321 326 330 330 330 332 332 331 330 330 331 332 332 333 333 334 337 338 341 344 345 346 345 344 344 345 345 345 346 346 345 345 345 345 346 346 345 345 345 345 345 346 348 349 349 350 350 350 350 350 350 351 351 351 351 352 353 354 353 352 352 353 351 350 350 350 350 350 350 350 349 346 341 338 338 339
326 325 325 324 323 321 321 320 319 321 324 327 329 332 334 334 334 333 329 328 331 331 333 334 333 334 338 342 344 346 346 345 344 343 344 345 345 346 345 345 345 344 344 345 345 344 344 343 344 345 345 346 348 349 349 349 349 349 350 351 350 350 351 351 351 352 353 353 352 352 352 353 353 351 350 351 351 351 350 350 351 350 347 343 340 339
326 325 324 323 323 322 319 318 320 322 323 324 326 330 332 331 332 330 326 325 329 330 331 334 334 336 342 345 346 346 344 343 343 343 344 345 345 345 344 345 344 344 344 344 343 343 343 344 344 345 345 346 348 349 348 348 348 348 350 350 350 350 350 350 351 353 353 353 352 352 352 353 353 352 351 351 352 351 351 350 350 350 350 348 345 342
327 328 326 322 322 324 320 318 320 320 319 323 328 331 331 330 332 333 327 326 330 332 332 334 335 340 346 347 346 345 343 342 341 342 345 345 344 344 344 343 344 343 343 343 342 343 344 345 345 345 345 347 348 348 348 347 347 348 348 349 350 349 350 350 351 352 354 353 352 352 352 353 354 353 353 352 352 351 352 351 350 350 350 350 349 347
327 330 330 324 321 322 320 318 319 318 320 327 330 332 333 332 333 333 326 324 331 336 335 335 337 342 346 346 345 344 341 339 340 343 345 344 343 343 342 343 343 342 342 342 343 343 344 345 345 345 347 347 346 347 347 347 347 347 348 348 349 349 349 350 350 351 352 353 353 353 354 354 354 353 353 352 352 352 352 351 351 350 350 350 351 350
326 327 327 322 319 320 320 319 319 320 325 331 331 331 333 334 334 330 322 323 335 340 337 337 340 342 345 345 344 342 340 340 342 344 343 343 343 341 341 342 342 342 342 342 343 344 344 344 345 346 347 347 346 346 346 346 345 346 347 348 348 349 349 350 350 351 352 352 353 354 354 353 352 351 351 351 351 351 351 351 351 351 350 351 352 354
325 325 324 322 320 319 320 319 319 322 329 333 332 332 334 334 332 327 323 329 339 339 338 341 341 343 345 345 342 340 340 343 344 343 342 343 342 341 341 342 342 342 342 342 343 344 344 345 345 346 346 346 346 346 346 345 345 345 346 348 349 349 350 350 350 350 350 351 352 352 352 351 350 350 350 350 351 351 351 351 351 352 352 352 353 353
323 323 323 322 321 320 320 320 319 322 331 335 333 335 335 331 328 328 331 337 339 338 341 343 342 344 346 343 341 341 342 343 342 342 343 342 341 341 342 341 341 342 342 342 342 343 344 344 345 346 346 346 346 346 346 346 345 344 345 346 347 347 348 348 348 348 348 349 350 351 350 350 350 350 350 351 352 352 352 353 353 353 353 353 352 352
324 322 320 321 323 321 321 320 318 321 331 336 334 335 335 331 331 335 338 339 339 339 342 342 342 344 343 342 342 342 342 342 342 342 342 341 341 341 341 341 341 341 341 342 342 342 343 344 344 345 345 346 346 346 346 345 345 344 344 345 345 344 344 344 345 346 347 348 349 349 349 350 351 351 351 352 353 352 352 353 352 352 353 353 352 351
326 323 320 322 325 322 319 321 323 327 333 335 334 335 336 335 337 338 336 337 339 340 340 340 341 343 342 342 342 341 341 342 342 342 343 341 340 341 340 341 341 340 341 342 342 342 342 343 344 344 344 346 346 345 345 344 344 343 344 345 345 344 342 341 342 344 346 347 347 349 349 349 350 350 351 351 352 352 352 352 351 351 352 352 351 350
330 332 328 327 327 326 324 328 333 335 335 334 335 337 338 338 338 337 335 336 338 339 339 338 339 341 342 343 342 341 342 342 342 342 342 341 340 340 340 340 340 340 341 342 342 342 342 343 344 344 344 346 345 344 344 344 344 344 344 345 345 345 344 343 343 344 345 344 346 347 348 348 348 349 349 350 350 351 351 351 352 351 351 351 351 350
333 334 331 329 330 330 331 334 336 336 336 335 336 337 337 337 337 336 336 337 338 339 340 339 338 340 342 342 342 341 342 342 342 342 341 340 340 339 339 340 340 340 341 341 341 342 342 342 344 344 344 345 345 344 344 344 344 344 344 344 344 345 344 344 345 345 345 345 345 346 346 346 346 347 347 347 348 349 350 350 351 351 350 350 349 349
332 329 327 329 330 327 328 331 333 335 336 336 335 335 336 337 338 339 339 340 340 340 340 340 341 342 341 341 342 342 342 342 342 340 339 339 339 339 339 339 339 339 340 340 340 341 342 342 343 343 343 344 344 343 344 344 344 344 343 344 344 344 344 344 344 344 344 344 344 344 344 345 345 346 346 346 347 348 348 348 348 348 348 347 347 347
331 328 326 330 330 329 331 335 336 337 339 339 337 336 336 336 339 341 342 341 341 341 341 341 341 341 341 341 342 342 342 341 340 339 338 338 338 338 338 338 338 338 338 339 339 340 341 342 342 342 342 343 344 344 343 344 344 343 343 343 343 343 343 343 343 343 343 343 343 343 343 344 344 344 344 345 345 346 346 346 346 346 346 346 346 346
332 327 326 329 330 330 334 337 338 337 338 338 338 338 338 338 340 341 340 340 341 341 341 341 341 341 341 341 342 342 341 340 340 339 338 337 338 337 337 337 337 335 335 337 338 339 340 340 340 341 342 342 343 343 344 344 343 343 343 343 343 343 343 342 343 343 343 343 343 343 343 343 344 344 344 344 345 345 345 345 345 345 345 345 344 343
330 327 329 330 328 327 330 336 336 334 333 334 335 337 339 339 341 341 340 340 340 340 340 341 341 342 342 341 341 341 340 340 339 338 337 338 337 336 335 336 336 335 334 334 336 337 339 339 340 340 342 342 342 343 343 343 343 343 344 344 344 344 343 343 342 342 342 343 343 343 343 343 343 344 344 344 344 344 344 343 343 343 343 343 342 342
329 330 330 328 327 328 332 335 334 331 331 333 334 337 339 339 340 341 340 339 339 339 340 341 341 342 342 341 341 340 339 339 339 338 338 338 335 333 334 335 335 335 334 333 334 336 337 337 338 339 340 341 341 342 342 342 341 342 343 343 344 344 343 342 341 341 341 342 342 342 342 342 342 343 343 343 343 343 343 342 342 342 342 342 342 342
Wind_Speed
6 6 6 6 6 7 8 9 10 8 6 6 6 5 5 7 3 2 3 3 0 5 5 4 7 9 9 6 4 7 8 10 9 9 12 15 16 15 15 13 13 15 14 13 12 12 11 11 11 11 11 11 11 11 11 11 12 11 12 11 10 12 12 13 16 16 14 14 15 15 17 18 17 18 19 16 13 12 12 15 17 18 17 18 16 13
5 7 5 5 5 5 7 8 8 8 8 9 8 6 6 7 2 4 3 3 2 4 4 3 8 10 6 4 4 7 8 8 6 7 10 13 15 12 12 13 14 15 13 11 12 11 11 11 11 11 11 12 12 12 10 11 12 12 11 10 10 11 11 12 15 15 14 14 15 16 18 18 17 17 17 15 13 12 14 17 18 17 16 17 15 12
7 7 1 1 2 4 7 8 9 10 10 9 8 7 6 5 1 4 4 4 3 3 5 6 10 8 2 2 3 6 7 7 4 3 10 15 16 12 12 12 13 16 14 12 13 11 11 12 12 12 11 12 12 11 10 11 12 13 11 9 10 11 10 12 14 15 14 14 15 17 18 16 14 16 15 14 15 14 14 17 17 16 16 15 13 11
4 1 4 2 2 6 8 8 10 9 9 9 8 8 7 4 2 1 4 5 4 4 6 9 10 5 2 1 1 6 8 7 6 6 10 13 13 13 14 13 13 16 14 12 13 11 12 12 13 13 12 13 13 12 12 12 12 13 12 10 9 10 10 12 14 15 15 15 17 18 17 13 13 16 16 16 17 16 14 16 16 15 15 14 12 10
2 6 4 2 4 7 8 8 10 8 7 9 10 9 8 5 3 4 1 4 4 5 5 9 8 2 2 2 3 6 7 7 6 7 8 8 13 14 11 12 12 11 11 11 12 11 12 13 13 13 13 13 13 12 12 12 12 12 12 11 10 10 10 12 14 15 17 19 20 21 20 16 16 19 18 16 17 16 15 15 14 14 14 14 11 10
0 5 2 3 5 9 8 7 10 9 5 7 10 9 8 6 5 5 3 4 6 4 2 6 7 0 3 4 5 5 5 7 6 6 5 5 11 12 8 8 9 9 9 10 10 11 12 12 13 13 13 13 13 12 12 12 12 12 12 12 10 11 11 11 13 14 17 19 20 22 23 20 19 20 18 16 15 15 15 13 12 12 12 13 11 10
2 3 1 2 3 8 9 7 9 10 7 3 5 5 7 8 7 6 6 6 5 1 2 3 6 3 2 4 5 4 5 7 6 6 6 5 10 13 11 9 8 8 9 10 9 11 12 12 14 14 14 13 12 12 13 12 12 12 13 12 11 11 12 13 14 15 16 18 19 20 20 19 19 18 17 16 14 14 14 12 11 12 11 12 11 9
1 3 3 2 3 7 8 4 6 10 8 1 4 2 5 6 6 5 5 5 3 1 3 2 4 4 2 5 3 2 4 6 6 5 6 9 12 15 15 12 9 8 9 10 10 12 12 12 14 14 13 13 12 12 13 13 14 13 12 12 12 12 12 14 15 17 18 19 20 20 18 17 17 17 17 17 14 13 14 12 11 11 10 12 12 10
2 1 1 3 6 4 1 4 3 7 4 3 1 2 3 3 4 4 5 3 2 3 2 3 2 5 2 4 3 3 1 4 6 5 6 10 13 16 17 15 11 10 10 10 11 12 12 13 15 14 13 13 13 13 14 14 14 14 12 12 13 12 13 14 15 19 20 19 20 21 18 17 17 15 17 18 15 14 14 13 11 11 10 11 13 12
2 1 1 5 6 2 6 6 2 3 0 3 2 2 2 3 4 4 4 2 2 5 2 2 2 5 3 3 3 2 2 2 4 5 7 10 14 17 18 17 14 12 11 10 10 11 13 15 16 14 13 14 14 14 14 14 15 15 14 14 14 13 14 15 16 19 21 20 21 21 19 19 18 16 16 17 16 15 15 14 12 11 11 11 11 12
1 2 2 3 2 5 5 4 3 0 2 5 5 3 2 2 2 3 3 3 5 4 1 3 2 4 3 2 2 2 1 2 3 5 5 8 12 16 19 18 15 13 12 11 10 10 12 15 15 13 13 14 15 15 15 15 15 15 15 15 15 14 14 15 17 19 20 21 22 22 22 22 21 18 17 17 17 17 16 14 11 11 12 11 11 11
4 5 4 3 2 2 4 4 3 2 3 4 4 2 3 3 2 4 3 3 6 2 2 2 2 4 3 1 3 2 2 2 3 5 7 9 13 15 17 16 15 13 12 11 11 11 12 14 15 14 14 14 15 16 16 16 16 16 16 17 16 16 15 15 17 18 20 20 21 23 23 23 22 20 19 19 18 17 16 14 12 11 12 12 12 11
5 3 4 5 3 4 5 4 3 2 3 5 5 3 5 4 3 5 4 4 4 1 3 2 2 4 2 3 3 1 1 1 1 3 7 11 15 17 17 16 15 13 11 11 12 14 15 15 16 16 15 16 17 17 17 17 16 16 17 18 18 17 17 16 16 18 19 20 21 22 22 22 23 22 20 20 18 17 16 13 12 13 13 13 13 12
4 6 6 5 4 4 6 4 2 2 3 4 4 3 5 5 5 5 4 4 2 2 3 0 2 3 1 2 2 1 1 1 1 2 4 10 16 19 17 17 16 14 13 14 15 17 18 16 16 17 16 17 18 18 19 18 17 17 17 19 19 19 19 18 17 18 18 20 20 21 22 22 22 22 22 20 17 16 15 14 13 13 12 13 12 12
1 4 5 1 2 3 5 5 5 4 3 2 2 4 4 4 5 5 3 4 2 1 1 3 2 3 2 1 1 1 1 1 2 2 0 8 14 15 13 13 15 15 16 16 16 17 17 16 16 16 17 18 18 18 19 19 19 18 18 19 20 20 20 20 19 19 18 19 19 20 21 22 21 21 21 19 16 15 14 13 13 12 12 11 11 11
4 2 6 4 2 1 2 2 4 7 4 2 1 4 3 2 3 4 4 5 6 4 1 2 3 1 2 1 3 1 1 0 2 3 3 3 9 11 8 8 9 11 13 15 15 14 13 15 16 16 17 17 18 19 19 20 20 20 19 19 19 20 20 21 21 20 19 19 19 19 21 22 21 20 19 18 17 16 14 13 12 13 13 11 11 12
3 3 7 4 4 3 3 2 1 5 3 1 4 3 3 3 4 5 3 2 5 6 1 1 3 1 2 2 3 2 2 1 1 3 7 6 6 10 8 8 11 10 11 14 15 14 13 14 15 15 17 17 17 19 20 21 21 21 21 20 19 19 20 21 21 21 20 20 20 20 21 21 20 19 18 17 17 16 14 14 13 13 12 12 12 11
3 2 6 4 3 5 1 2 1 1 4 4 2 2 4 1 4 4 3 3 4 5 1 1 4 3 1 1 2 2 1 2 4 5 8 9 9 10 11 14 17 13 12 13 14 13 12 14 15 15 16 17 17 19 20 22 21 21 21 21 20 20 20 21 21 21 21 21 21 21 21 21 20 18 17 15 15 15 14 15 14 13 12 13 12 11
3 2 6 5 2 4 4 5 3 3 1 4 3 2 1 4 3 2 3 4 3 4 3 1 1 4 2 2 1 1 2 3 5 6 7 9 10 9 9 13 16 14 14 16 17 15 12 12 15 16 16 16 17 18 19 21 20 20 20 21 21 20 19 19 20 21 22 21 21 21 21 22 21 19 17 16 15 15 15 15 14 13 13 13 12 13
2 4 3 6 3 3 5 5 3 2 3 1 2 2 2 4 4 2 3 4 4 5 4 2 2 1 2 3 2 2 4 4 5 6 7 9 10 9 7 5 10 12 13 15 16 15 13 13 14 16 16 15 16 17 18 19 20 19 20 20 21 20 19 19 19 21 22 21 21 20 21 22 22 21 19 17 16 15 15 15 14 14 13 13 12 13
2 4 1 5 5 4 3 1 4 4 2 3 4 4 2 2 3 3 4 4 4 6 4 3 5 1 5 2 1 3 4 4 6 6 6 8 10 9 7 3 3 7 8 9 11 13 15 16 14 13 15 15 15 16 17 18 19 19 19 20 21 21 21 20 20 20 21 21 21 21 21 22 22 22 20 18 17 16 16 15 15 14 13 13 13 13
3 3 3 2 3 2 1 3 3 4 4 5 5 4 4 3 4 5 5 3 3 5 5 5 6 2 4 2 2 3 2 4 6 6 6 7 8 8 7 5 3 4 5 5 7 10 13 16 16 12 13 14 15 16 17 17 17 18 19 19 20 21 22 22 21 20 20 20 21 22 21 21 21 21 21 19 18 18 17 16 15 15 14 14 14 14
1 3 3 2 2 3 4 4 1 2 3 5 4 4 4 4 5 6 6 3 2 4 4 5 7 1 4 3 3 3 3 5 5 6 6 6 6 7 6 6 5 3 3 4 5 6 9 15 17 13 12 13 15 16 18 18 17 17 19 19 19 21 22 22 21 21 21 20 21 22 22 21 21 21 21 20 19 18 18 17 16 16 15 15 14 14
1 2 2 1 0 1 4 4 3 2 4 5 3 1 3 4 4 6 6 4 5 6 4 6 7 1 3 3 4 3 4 4 3 4 5 5 5 6 6 6 6 5 3 2 4 5 6 10 15 15 13 12 14 16 17 18 18 18 18 20 20 21 22 21 21 21 22 21 20 21 22 21 21 21 21 21 20 19 18 18 17 17 17 16 15 14
4 2 2 4 3 3 4 5 5 4 4 4 1 1 3 4 3 5 4 2 6 7 4 7 6 1 3 1 1 1 2 3 3 3 3 3 4 4 5 6 6 6 5 3 2 4 4 5 10 16 15 12 12 14 16 17 18 18 19 21 22 22 22 22 21 21 22 21 20 21 21 21 22 22 22 22 21 20 20 19 18 17 17 17 16 15
3 2 3 5 5 4 3 2 1 1 2 2 1 1 3 4 4 4 4 4 5 3 2 7 6 1 2 3 2 1 2 2 2 2 1 2 4 4 5 6 6 5 5 5 3 2 3 3 5 10 14 14 13 13 14 16 17 18 19 20 22 22 22 22 22 23 23 22 20 21 22 22 22 22 22 22 22 21 20 20 19 18 18 18 17 16
2 3 3 4 6 5 5 4 3 3 3 1 1 3 4 3 4 5 4 4 4 3 3 5 5 5 5 3 1 1 2 2 2 2 2 2 3 4 4 5 5 5 5 5 4 3 2 3 4 6 9 14 15 14 13 15 16 17 19 20 21 22 22 23 24 25 25 23 21 21 22 22 22 22 22 22 22 21 21 20 20 20 19 18 18 18
3 4 5 5 5 3 2 1 1 3 4 3 2 4 4 3 4 6 5 3 4 5 4 1 2 6 8 6 4 3 3 2 2 2 2 2 3 4 4 4 4 5 5 5 5 5 4 3 4 5 6 9 13 15 15 15 15 16 18 20 21 22 23 24 25 26 25 24 24 24 23 23 23 22 21 21 21 21 21 20 20 20 20 19 19 19
5 4 4 6 5 3 2 2 3 4 4 3 3 4 4 4 6 6 6 4 3 5 5 3 4 7 7 7 6 5 5 4 2 2 2 2 2 3 3 4 4 5 5 5 5 5 5 5 5 4 5 6 9 12 15 16 16 16 17 19 21 22 22 23 25 26 26 25 26 26 25 23 23 23 22 22 23 23 22 21 20 20 20 20 19 19
5 2 3 6 6 5 5 4 4 6 6 5 6 5 4 6 7 7 7 7 6 8 9 8 9 9 7 7 6 4 4 4 2 1 1 1 2 3 3 4 4 4 4 4 5 5 5 5 5 5 5 6 7 8 11 14 16 17 18 18 18 19 20 21 23 24 25 26 26 27 26 25 24 24 23 23 24 24 24 23 21 20 20 20 20 19
4 2 4 6 6 6 7 6 7 8 7 6 7 6 6 7 8 8 8 7 7 8 8 8 10 8 3 2 2 2 2 2 2 3 2 1 1 2 3 3 3 3 4 4 4 4 5 5 4 4 5 6 7 8 10 12 13 15 17 17 18 19 20 21 22 21 23 25 25 26 27 26 26 25 24 24 23 23 24 24 23 21 21 21 21 21
5 3 3 4 7 6 6 8 9 8 8 9 9 9 9 8 8 7 6 5 6 7 7 7 7 3 2 2 1 2 3 4 3 3 2 2 2 3 4 4 3 2 3 4 4 4 5 5 5 5 5 5 6 7 9 11 12 14 16 16 18 20 21 22 23 22 22 23 24 25 26 26 27 27 26 25 23 22 22 24 24 23 22 22 21 22
6 5 3 4 7 4 4 6 8 7 8 9 6 6 8 8 8 7 5 5 6 6 6 6 4 4 3 1 3 3 3 4 3 2 2 3 4 4 5 4 3 2 3 4 4 4 5 5 5 6 6 6 6 6 8 10 12 14 16 16 17 20 22 23 24 24 22 21 23 25 25 25 26 27 26 26 24 22 21 22 24 25 24 23 23 22
7 8 4 3 6 4 2 2 6 8 8 4 1 1 4 4 6 7 6 6 5 5 6 6 6 4 2 3 4 3 3 3 2 2 3 4 5 5 5 5 4 3 4 5 5 5 5 6 6 7 8 8 8 7 7 9 10 13 15 17 16 18 21 24 25 25 24 22 23 24 24 24 25 26 26 25 24 23 22 21 22 24 25 24 23 22
7 8 5 3 6 5 1 3 7 8 5 1 4 1 2 3 5 7 7 6 5 7 8 8 8 6 4 4 4 3 2 2 2 3 4 5 5 4 4 4 4 4 5 6 5 5 7 7 7 8 8 8 8 8 7 8 9 12 14 17 17 18 20 23 25 26 25 24 24 25 24 24 24 24 24 24 23 23 23 22 21 22 24 25 24 23
7 6 5 4 5 5 4 5 7 6 4 2 4 3 2 3 5 7 7 5 5 8 8 8 7 5 2 3 3 2 1 2 3 4 5 5 4 3 3 4 4 5 5 5 6 7 8 9 8 8 9 8 8 8 8 8 10 12 15 16 18 20 21 23 25 26 26 26 26 25 25 23 23 23 23 23 23 23 23 23 21 21 22 23 25 24
7 6 5 5 5 5 7 7 6 7 8 7 5 5 5 5 5 5 6 3 3 6 7 6 6 3 2 3 2 1 1 3 5 5 5 6 4 2 3 4 4 5 5 6 7 9 9 8 8 9 9 8 8 8 8 9 9 12 16 17 18 20 21 23 25 25 25 27 27 27 25 23 21 21 21 22 22 22 22 22 21 20 20 21 22 23
6 5 5 6 5 4 7 7 6 7 7 3 1 4 5 5 3 3 6 4 3 4 4 4 3 1 3 4 4 3 2 4 5 3 5 5 3 2 3 4 4 5 6 6 7 8 8 8 8 8 7 6 7 7 8 9 9 11 16 17 18 19 20 23 25 26 26 26 26 25 23 21 19 18 18 20 20 20 20 20 19 19 19 19 20 21
7 5 5 6 5 4 6 7 6 7 4 1 2 5 6 4 4 3 5 4 3 4 2 2 2 2 4 5 5 4 3 4 3 3 5 4 2 1 3 4 4 5 5 6 6 6 7 7 6 6 5 5 7 8 8 9 9 10 14 16 17 18 19 21 23 24 24 22 21 20 18 17 18 17 17 18 18 18 19 18 17 18 18 18 18 19
7 5 5 7 7 5 6 7 7 6 1 4 5 6 6 4 5 5 6 2 4 4 2 1 1 2 4 5 5 5 4 4 2 4 5 3 2 1 2 3 4 5 4 5 6 6 6 7 5 4 4 5 7 8 8 9 8 7 10 12 13 14 16 18 20 22 21 18 17 18 18 17 16 16 16 16 17 18 18 17 16 17 18 17 15 15
7 6 6 7 7 6 6 7 7 4 1 6 6 7 7 6 5 6 4 1 3 2 2 1 2 3 5 6 5 5 3 1 1 4 5 3 1 1 2 3 4 5 4 5 7 7 6 6 4 2 2 4 6 7 7 7 6 4 6 10 12 12 13 16 18 20 20 17 16 16 17 17 16 15 15 16 17 18 17 16 16 17 17 16 15 15
6 6 6 6 7 6 5 6 7 4 2 6 7 8 8 5 4 3 0 2 1 1 1 2 3 3 5 6 6 4 2 2 3 4 4 2 1 2 2 3 5 6 5 6 8 8 7 5 3 1 2 3 3 5 8 7 7 6 1 6 9 10 11 13 16 19 19 18 17 17 17 17 15 14 15 15 16 16 17 16 17 16 15 15 15 16
5 5 7 6 5 5 5 6 7 4 3 10 10 7 6 5 1 2 2 2 1 0 1 3 3 3 5 6 6 5 4 4 4 4 3 2 1 2 2 4 5 6 6 7 8 8 7 4 1 2 3 3 3 4 6 7 9 11 8 4 2 3 3 4 8 14 17 19 18 16 15 14 14 14 15 15 15 16 16 16 16 16 15 15 15 17
5 5 7 4 3 5 6 5 3 2 6 14 10 3 4 5 2 2 1 1 1 2 2 3 3 4 5 6 6 6 5 5 5 4 3 2 1 1 2 4 5 6 6 6 7 7 6 3 3 4 4 5 5 4 5 6 9 11 11 9 7 7 7 5 2 5 10 14 16 16 15 14 14 14 14 13 13 13 14 14 14 14 14 15 16 18
4 2 4 3 3 4 4 2 2 3 8 14 9 1 2 4 2 1 3 2 1 2 3 3 3 4 5 5 6 6 5 5 5 5 3 3 1 1 2 4 5 6 5 5 6 7 6 3 5 5 5 5 4 4 5 6 9 11 12 11 8 7 7 6 4 4 5 7 11 13 13 12 13 14 13 11 11 11 11 12 12 12 13 15 16 16
1 2 3 2 2 3 1 1 3 3 8 12 8 3 3 3 3 3 2 2 2 1 2 3 3 3 4 5 5 5 5 5 6 5 4 3 2 0 1 3 4 5 5 5 6 6 5 3 3 5 5 4 4 5 7 9 11 13 13 13 12 9 8 7 6 7 8 8 8 9 9 8 9 10 11 10 10 11 12 12 11 11 11 11 12 12
2 4 5 3 2 3 3 5 6 6 8 11 9 6 4 3 4 4 3 2 1 2 2 2 2 2 4 4 4 5 6 6 6 5 5 4 3 1 1 2 3 4 5 6 7 7 6 4 1 4 5 6 6 7 8 11 13 13 12 12 11 10 10 11 11 11 12 12 11 11 9 8 7 7 8 9 10 11 12 11 11 10 10 8 9 11
5 6 6 4 5 3 1 4 6 5 6 8 8 7 6 6 6 6 4 3 2 3 3 2 2 3 3 4 5 6 7 7 6 5 5 4 3 3 2 2 3 5 7 7 7 7 6 5 3 3 6 7 9 9 9 10 12 12 12 11 10 10 12 13 14 14 14 14 14 14 12 11 9 7 6 7 8 8 9 9 10 9 8 7 8 9
7 8 6 5 7 5 2 5 6 4 4 7 10 8 7 7 8 8 6 5 4 4 4 3 3 3 4 5 6 6 7 7 7 6 6 5 5 4 4 3 3 5 6 7 7 6 5 4 3 4 7 8 8 8 8 10 10 10 10 10 10 11 13 14 14 15 15 14 15 15 14 14 14 12 10 9 9 9 9 9 9 8 8 8 8 7
7 7 6 5 7 7 4 8 10 5 2 7 12 12 10 9 9 9 8 7 6 6 5 4 4 5 6 6 7 7 7 7 7 7 7 7 7 6 5 5 4 5 7 8 8 7 5 4 3 3 6 7 6 7 9 10 10 10 10 10 10 11 12 13 13 13 13 13 14 14 15 16 16 15 15 14 13 12 12 12 11 11 10 10 9 9
8 7 7 7 6 4 2 10 14 7 1 3 8 12 13 12 10 10 9 8 7 7 6 6 7 7 7 7 7 7 7 8 8 8 7 8 9 8 6 4 4 6 7 8 7 7 6 5 4 4 6 7 7 9 11 11 10 11 10 10 10 11 11 12 12 11 11 13 14 15 16 17 16 15 14 13 13 13 13 13 13 13 11 10 9 9
Wind_Direction
217 227 222 234 237 232 227 235 253 281 292 278 273 266 278 282 267 84 93 113 349 283 281 288 294 299 297 302 315 320 316 294 275 243 220 195 189 185 181 195 196 200 200 174 171 179 174 174 170 170 170 167 164 166 175 172 168 171 173 178 176 176 187 182 175 174 171 174 174 173 177 175 174 171 162 160 162 162 170 175 175 178 180 180 182 183
211 242 237 237 256 254 238 237 242 252 252 250 256 255 259 268 263 96 115 137 147 280 302 301 291 296 299 309 326 328 322 316 297 235 207 175 176 178 171 191 203 201 196 173 171 178 175 176 173 171 172 169 169 171 178 174 167 171 178 181 177 182 190 182 175 173 171 177 178 177 179 177 174 170 165 166 165 166 177 176 173 178 180 182 187 190
210 234 202 115 254 235 227 227 221 225 233 235 239 246 254 256 222 112 141 169 173 273 311 318 303 304 341 340 336 351 347 350 356 205 182 168 171 171 169 188 205 201 193 180 182 184 180 182 178 174 174 172 172 172 174 173 169 170 178 181 178 184 188 180 175 173 175 178 179 179 177 172 172 172 168 170 172 170 175 177 176 178 181 184 189 192
227 154 81 95 211 212 212 213 212 218 224 228 227 231 244 244 257 253 168 175 199 260 299 305 297 292 87 112 43 34 27 33 46 111 150 164 160 157 175 197 207 199 192 191 191 187 184 184 182 179 175 173 171 170 171 173 171 171 178 181 178 184 186 182 178 174 176 181 180 177 171 167 173 175 172 175 179 173 173 180 180 181 184 185 186 188
307 56 57 213 216 215 208 201 209 217 213 219 225 229 243 246 268 289 193 171 216 227 267 296 292 264 92 49 72 64 60 63 69 106 118 137 148 152 178 201 210 203 194 198 195 188 187 185 184 182 176 174 173 172 173 174 172 173 178 176 173 180 181 180 179 177 180 185 183 177 173 174 177 178 176 177 179 178 177 180 183 184 185 184 184 189
84 66 11 238 209 213 211 201 208 221 217 204 213 230 260 279 277 270 231 219 245 220 223 302 308 36 95 49 53 71 76 72 84 125 119 137 167 181 200 204 213 214 204 206 201 192 189 186 185 181 178 177 175 175 175 173 172 173 177 172 167 173 174 173 175 177 182 185 183 180 179 179 178 179 178 177 178 182 181 178 183 186 187 186 186 189
96 99 255 260 202 204 213 215 203 218 240 189 167 217 258 269 262 249 230 240 276 321 132 285 312 337 92 72 60 68 80 89 97 119 140 180 202 214 226 225 224 222 213 210 204 198 193 188 184 180 182 182 178 176 174 172 170 174 177 170 164 169 171 172 173 175 178 181 181 179 180 181 179 178 180 180 178 181 180 177 183 187 189 186 182 187
131 169 196 246 231 203 208 214 182 212 250 36 91 195 229 237 234 226 225 241 291 352 162 197 307 313 27 66 77 100 88 108 119 120 156 199 219 225 232 237 240 238 224 211 203 200 196 189 185 184 184 183 181 176 173 172 170 175 180 170 164 169 171 173 177 178 177 179 181 177 177 182 181 180 183 180 175 179 181 179 182 184 190 188 178 182
109 223 195 273 265 219 109 47 132 208 248 42 79 209 198 219 212 205 229 245 293 279 219 134 315 303 17 73 119 171 167 128 138 157 183 208 222 230 234 237 249 257 235 216 206 201 198 195 192 190 186 182 181 177 174 173 170 175 180 171 168 170 173 176 179 180 177 177 181 179 178 182 180 181 187 183 178 182 183 182 183 181 185 190 184 182
54 340 309 285 289 25 58 55 103 226 298 102 167 157 145 203 201 213 247 263 261 267 292 57 321 307 11 93 134 166 217 171 150 171 194 209 216 227 233 236 247 249 232 220 213 206 203 202 198 192 185 182 180 177 176 172 170 174 176 174 173 172 175 180 182 183 178 175 179 181 182 185 181 180 184 184 186 190 189 188 193 190 185 188 190 187
65 129 201 257 329 59 81 89 89 9 111 150 181 164 172 213 223 251 275 295 269 254 6 28 331 314 339 66 101 93 150 148 156 168 187 221 223 223 228 233 239 234 223 218 217 213 202 196 195 189 183 183 179 178 177 173 172 174 176 176 175 174 178 182 185 186 180 176 181 185 186 187 187 185 184 186 191 195 195 194 198 199 191 185 189 191
160 165 163 135 88 117 144 126 96 112 149 194 228 246 251 228 225 255 233 247 267 260 73 16 331 294 293 39 64 66 112 141 176 175 183 216 231 230 228 229 231 229 224 217 215 218 207 193 191 189 185 184 181 179 179 177 175 175 178 179 176 177 180 183 187 189 185 182 184 188 190 191 192 193 192 193 195 196 198 200 200 199 194 189 189 191
159 134 119 121 158 219 211 161 135 164 203 250 255 248 259 245 225 249 235 233 255 55 54 351 294 280 299 58 57 80 137 144 183 207 203 208 221 230 229 223 222 223 228 229 219 214 210 198 191 191 189 187 185 184 182 181 178 176 181 183 179 179 182 184 187 189 191 190 189 191 192 193 196 196 196 197 197 199 201 201 200 198 195 192 192 193
151 128 145 160 158 204 250 237 186 191 208 247 264 251 264 271 260 256 250 250 255 61 47 307 243 273 278 91 80 97 76 26 4 287 241 221 222 228 228 223 220 215 216 225 222 214 210 201 194 194 192 191 191 188 185 184 182 180 183 186 184 183 184 185 187 189 193 194 193 193 192 194 196 196 198 198 198 201 202 199 197 197 197 198 199 199
228 135 132 127 115 160 250 281 327 313 239 219 320 290 276 284 287 290 298 292 300 57 141 192 232 299 315 157 115 58 355 0 345 2 229 224 223 224 229 230 227 220 215 218 221 219 213 205 199 197 196 196 195 192 188 186 186 185 186 189 189 187 187 188 189 190 193 195 194 194 193 192 194 195 197 197 196 199 200 198 197 196 197 203 205 205
277 102 88 54 51 97 271 318 320 294 268 132 205 260 275 329 304 291 308 328 325 301 234 213 255 339 39 151 153 180 274 1 358 31 72 183 200 195 213 249 253 244 237 234 230 230 224 211 204 202 201 200 198 195 191 188 190 190 191 193 192 192 192 192 194 193 193 195 195 196 195 193 193 194 195 197 197 196 195 195 198 202 201 201 204 207
259 113 107 118 109 81 3 22 311 282 292 162 220 235 55 25 298 284 285 308 288 276 257 257 267 186 130 188 171 185 239 152 63 53 65 74 136 153 165 220 240 233 233 241 238 235 232 220 213 208 206 204 201 199 195 193 195 196 197 197 195 196 197 197 198 198 197 197 196 197 198 196 196 196 195 199 201 197 196 197 200 205 206 205 206 208
274 143 128 155 133 109 60 332 108 286 300 285 268 77 88 200 249 270 283 260 253 267 248 163 290 290 252 215 181 196 199 109 70 56 65 71 88 116 150 199 225 220 208 223 231 233 236 230 224 218 212 209 204 201 200 199 198 199 201 199 197 198 199 200 201 201 202 202 200 201 201 200 200 200 198 200 202 201 202 203 202 204 206 209 209 207
276 244 142 164 180 131 184 238 194 151 262 315 351 56 245 264 236 203 275 290 283 284 283 88 332 293 305 29 112 157 61 61 59 58 61 64 69 85 136 191 224 232 223 226 228 228 234 236 231 225 219 213 207 203 202 202 199 199 201 199 198 200 201 201 201 202 205 205 204 204 204 203 202 201 202 202 204 205 205 206 206 206 208 210 209 210
254 275 155 154 184 177 196 237 251 172 152 227 265 208 236 296 302 286 294 303 298 286 288 326 301 248 76 30 5 61 57 35 39 52 53 56 63 69 92 169 225 238 237 240 238 230 227 232 235 233 225 216 210 205 202 202 201 200 201 199 198 199 200 200 200 202 206 205 204 205 206 207 206 204 204 205 206 207 207 207 208 208 211 210 208 213
203 270 276 155 184 222 225 305 324 317 290 254 253 243 229 246 270 280 273 264 281 289 292 292 288 12 92 80 15 64 58 32 30 36 45 53 59 64 66 64 263 256 248 250 251 243 234 232 235 236 231 221 212 208 203 203 204 203 202 201 199 198 199 200 200 202 205 204 203 205 207 209 210 209 207 207 208 210 209 210 210 209 211 210 208 211
211 256 282 227 214 242 41 48 7 339 325 305 294 294 293 282 274 271 260 234 240 279 295 293 289 347 83 93 68 67 49 39 33 22 32 44 51 57 55 43 352 295 275 266 262 254 246 242 238 233 234 227 214 209 205 203 205 205 204 204 202 201 200 200 201 202 205 206 205 206 206 207 210 211 209 209 211 211 211 213 212 211 210 210 210 210
325 279 281 314 336 13 72 90 57 349 320 294 289 303 297 279 275 275 279 289 273 276 301 291 280 325 73 46 45 47 21 23 22 16 21 30 45 53 46 35 24 349 295 278 269 257 251 250 243 230 227 229 218 211 208 204 206 208 207 207 205 204 203 203 202 202 206 209 207 207 207 206 208 210 210 209 211 212 213 213 213 212 211 211 212 213
199 265 273 297 280 137 137 155 184 235 274 268 249 289 298 287 293 292 298 317 290 274 275 267 265 274 69 30 37 31 358 350 355 10 12 14 35 47 43 33 25 19 1 293 272 261 255 254 242 225 221 229 223 214 210 208 208 209 209 208 206 207 207 207 204 202 208 213 210 207 208 207 208 210 209 210 210 211 212 213 213 213 212 211 212 214
196 230 256 269 248 200 189 193 192 200 238 267 272 33 311 299 298 286 288 286 267 274 286 271 270 67 97 133 91 49 310 308 326 353 1 13 30 34 37 33 21 14 8 349 289 261 261 257 236 223 223 231 228 220 215 213 211 210 209 208 208 210 210 209 206 204 209 216 210 205 208 209 208 210 210 210 211 211 212 212 211 212 212 212 212 213
200 235 237 280 296 294 290 307 353 273 243 263 284 267 265 270 275 279 277 259 260 283 293 265 273 38 124 168 142 203 264 293 317 328 0 33 39 39 35 24 16 11 1 355 344 289 264 257 237 226 227 227 227 228 226 222 219 216 213 211 211 214 214 211 210 210 214 217 211 206 207 207 209 211 211 211 212 212 212 212 211 211 212 212 212 212
207 233 226 279 299 315 335 9 23 318 300 317 274 253 248 257 272 269 263 273 291 297 268 262 285 301 282 267 299 306 295 312 321 339 29 41 45 50 38 17 15 16 5 357 348 335 301 259 246 243 239 231 229 233 232 230 229 225 221 218 215 217 220 217 214 217 222 221 213 210 208 206 208 211 212 213 213 213 213 213 213 213 213 213 212 213
233 220 201 240 260 293 345 41 145 275 293 321 300 265 253 242 249 255 262 307 329 291 280 18 350 293 294 298 305 321 327 317 312 339 13 29 47 51 31 9 16 15 8 4 348 338 334 301 266 254 256 248 244 243 238 233 231 228 227 226 222 222 226 224 220 221 224 222 216 216 214 209 208 210 211 213 214 214 215 216 215 215 215 215 215 215
252 234 185 216 228 206 200 195 198 241 267 285 278 275 272 249 246 258 272 288 294 279 293 337 310 290 297 299 306 330 328 314 327 344 345 14 43 41 10 352 5 7 8 14 0 345 335 320 304 281 267 261 257 255 250 245 239 232 230 231 230 230 230 228 227 227 227 223 219 220 219 214 211 210 210 212 213 215 216 216 218 218 217 217 218 218
264 254 185 228 228 200 205 214 219 232 246 257 261 268 267 257 257 264 277 287 285 281 289 299 294 288 288 294 310 338 331 317 312 281 283 355 33 16 343 337 359 8 11 18 11 1 349 332 320 305 289 271 260 255 253 252 247 240 235 233 233 232 230 229 231 232 232 227 221 220 221 218 217 216 215 216 218 219 218 217 217 218 220 220 220 220
241 225 193 228 235 214 211 224 234 240 251 258 264 271 265 264 266 261 268 280 277 279 289 293 290 286 286 326 331 320 306 287 248 249 260 287 346 337 312 316 347 5 7 13 13 6 356 347 334 317 304 286 270 257 247 246 246 244 239 234 232 232 231 231 231 230 232 230 225 222 222 221 221 221 220 221 222 222 222 220 218 218 220 221 222 222
216 219 180 220 254 244 211 225 239 243 253 256 259 264 254 250 261 262 265 269 269 285 295 286 287 310 78 86 281 254 261 266 258 254 256 268 291 294 287 294 318 339 341 348 356 353 342 338 335 326 314 296 283 271 256 246 242 244 242 237 233 231 230 231 232 231 230 230 227 224 223 222 222 222 222 223 224 224 224 223 221 220 220 221 222 223
215 227 209 228 265 260 189 232 253 249 253 255 255 263 252 240 249 260 266 260 253 272 288 289 315 9 48 261 266 266 272 280 283 276 269 270 269 272 276 276 279 298 311 315 322 327 322 317 314 311 308 302 293 284 271 256 246 244 243 239 235 232 231 232 233 232 228 226 225 224 222 220 221 222 222 224 227 228 228 227 226 224 223 223 224 226
219 235 242 239 263 263 153 247 262 250 254 260 98 294 279 266 259 261 266 262 241 243 272 295 309 314 299 285 291 293 290 300 319 308 289 265 256 264 270 265 268 279 288 294 297 297 299 301 300 296 295 296 294 288 280 268 256 248 243 239 233 229 227 229 230 229 225 221 221 222 221 219 219 221 222 224 227 229 230 230 229 228 228 227 227 228
218 234 249 247 262 277 298 258 254 255 264 103 116 157 281 286 273 270 277 280 263 254 263 275 280 279 278 280 280 274 270 275 292 285 270 251 251 269 276 274 285 293 293 298 299 295 291 289 292 292 288 290 291 289 284 277 266 255 247 242 236 229 224 223 224 224 221 218 218 219 219 217 217 219 221 223 225 226 228 230 230 230 229 229 229 228
223 229 246 249 257 273 271 249 256 286 307 221 175 161 165 228 245 257 267 259 247 256 262 267 277 280 261 245 234 214 249 271 272 263 250 242 243 263 285 297 307 303 303 306 304 298 293 288 290 290 286 290 294 291 288 285 273 257 247 241 237 232 225 221 220 219 218 217 217 216 215 214 216 218 220 222 225 225 226 228 230 232 231 230 230 230
225 228 239 241 240 258 270 263 267 291 285 254 216 185 203 232 232 248 269 251 209 249 259 262 277 272 198 198 192 177 260 274 265 241 217 222 233 252 281 296 305 306 307 305 299 297 297 296 294 290 290 297 299 296 295 294 281 259 246 238 234 231 224 220 218 216 217 217 216 215 213 211 215 219 219 220 224 225 225 228 230 232 233 233 231 230
220 222 230 239 230 240 273 277 267 270 273 266 156 158 193 229 222 233 272 267 188 218 243 250 272 250 171 176 173 173 227 264 266 210 172 194 222 259 285 294 304 307 307 303 301 303 304 299 291 289 297 305 307 309 305 299 286 260 246 238 233 229 225 221 217 215 216 216 214 213 210 206 208 213 214 218 222 223 225 228 228 230 234 235 231 229
203 205 219 247 250 238 263 273 266 272 291 46 110 139 160 199 194 203 266 270 138 138 190 235 253 202 184 188 181 183 226 265 284 111 140 177 202 256 295 307 307 305 308 310 311 310 304 300 298 301 311 316 317 321 318 310 297 260 241 236 231 228 228 225 220 218 218 214 210 210 205 202 205 210 213 217 220 222 225 227 228 231 235 235 231 228
201 212 222 244 254 243 249 260 263 275 313 118 145 144 142 168 193 224 261 277 102 110 141 207 238 203 194 197 196 208 250 288 346 100 132 165 171 224 296 308 301 303 318 326 326 325 316 314 318 316 325 337 334 335 336 329 316 269 236 228 223 224 229 229 226 223 219 212 207 207 205 205 210 214 217 218 220 225 228 228 228 232 234 232 226 221
211 224 231 247 256 245 241 257 269 279 108 130 149 146 143 164 207 249 274 52 94 94 106 157 223 210 198 205 219 239 266 314 104 126 138 158 195 255 287 299 302 311 330 337 338 344 340 333 330 319 336 349 348 359 7 357 344 314 242 220 211 212 221 226 227 227 223 214 204 201 203 208 213 215 216 217 219 223 226 224 224 226 227 227 222 218
221 223 233 250 260 259 258 265 269 277 123 139 147 143 157 193 244 271 342 89 86 38 107 182 220 208 207 221 235 253 250 154 165 166 153 168 241 278 288 297 306 316 334 340 341 347 349 342 344 33 36 9 5 22 28 30 39 46 46 223 220 222 226 229 228 225 223 219 209 201 201 204 203 203 207 210 210 213 214 215 217 219 220 222 222 224
211 217 235 244 250 262 268 255 261 286 141 153 151 146 187 224 308 72 128 109 76 219 188 210 225 222 227 230 229 231 218 185 190 198 185 195 253 306 303 306 311 318 336 343 339 344 350 349 26 98 83 56 48 49 49 54 63 68 69 72 129 171 183 226 227 215 212 212 208 199 196 194 189 191 196 197 200 206 210 212 213 212 211 213 221 227
188 218 250 251 209 246 266 253 258 342 151 170 173 158 202 203 112 56 313 333 99 216 236 239 234 229 232 233 228 221 208 191 201 213 216 220 233 331 313 316 320 324 341 351 346 351 2 25 99 97 85 76 69 67 68 66 69 75 74 69 80 105 105 90 104 178 192 195 189 182 183 186 190 197 197 192 195 205 210 213 215 213 211 215 224 232
199 215 269 268 196 229 287 329 86 106 159 178 188 119 131 176 178 293 299 305 250 232 245 249 244 232 227 227 224 215 201 195 205 211 213 221 226 310 311 317 328 337 354 3 358 2 15 68 111 96 89 99 94 86 94 94 89 88 85 83 86 91 92 93 95 98 120 154 169 174 181 186 194 207 211 206 206 211 215 218 219 219 218 222 228 231
182 176 237 265 209 204 240 116 136 154 169 179 186 162 126 161 190 199 226 269 265 233 231 254 263 238 217 215 212 205 193 189 197 201 200 204 203 214 335 333 343 353 7 14 12 17 28 65 120 115 114 121 109 98 112 115 107 100 96 95 99 99 94 98 111 117 119 128 142 156 167 175 185 200 208 210 212 213 213 215 218 220 224 228 232 235
164 206 227 222 190 210 214 181 174 183 184 184 188 190 188 180 173 181 201 228 226 214 223 252 257 213 203 204 195 183 172 173 185 191 187 187 181 137 66 17 10 18 24 25 27 35 36 29 91 144 139 125 110 107 116 116 109 108 106 102 104 108 107 107 113 117 120 123 126 128 134 143 154 171 184 190 197 201 202 203 205 210 214 219 229 236
168 195 222 217 206 219 180 148 160 169 177 188 195 198 204 200 185 184 196 197 193 207 216 226 221 196 189 183 168 158 159 168 178 181 177 176 167 140 113 83 47 40 38 31 30 41 40 26 38 121 135 129 123 120 118 113 109 110 110 107 107 112 114 114 116 114 110 108 109 110 111 113 116 126 147 163 174 181 185 190 194 195 196 202 216 228
142 173 202 217 215 216 162 145 162 167 178 203 214 210 200 195 190 189 197 200 199 204 206 205 201 185 171 164 157 152 159 168 172 176 174 164 151 140 122 98 69 52 48 40 36 47 53 33 44 101 114 119 130 134 125 115 111 109 109 110 113 116 114 111 110 109 108 106 106 106 106 105 103 106 116 130 142 148 155 167 174 169 167 173 179 186
169 189 194 203 220 236 222 171 171 184 208 209 216 214 200 190 188 189 194 200 204 208 205 190 177 163 152 151 152 155 163 171 172 171 164 153 145 135 117 97 74 57 51 43 39 49 58 43 36 85 101 105 120 130 123 114 108 104 107 116 122 122 115 107 101 100 103 108 110 109 109 109 108 110 118 125 132 134 137 142 141 137 139 144 145 149
206 202 195 213 235 266 223 169 178 201 252 173 198 204 195 190 191 191 194 204 208 206 199 184 173 161 150 149 155 160 166 171 171 166 158 151 143 130 114 97 79 71 64 54 51 63 73 65 58 83 105 107 105 110 116 118 112 104 104 113 120 121 115 107 101 97 100 109 114 115 115 115 114 115 120 125 127 128 128 128 127 126 130 137 143 150